When you browse on this site, cookies collect data to enhance your experience and personalize the content and advertising you see.
Visit our Privacy Policy to learn more. By continuing to use the site, you agree to this use of cookies and data.
  • En España
  • Lista de países
  • Para 7 días
  • Temperatura del agua
  • Mapa Satelital
  • El tiempo en el mapa
  • Informadores
  • user-avatar
    Iniciar sesión

    Tiempo cada hora Kandahar

    Hoy, 18 Noviembre, Domingo

    Tiempo Temperatura Precipitaciones Viento Presión Humedad
    00:00 +16°C° 0 mm 2 mps 675 mmHg 42%
    01:00 +15°C° 0 mm 2 mps 675 mmHg 44%
    02:00 +15°C° 0 mm 2 mps 675 mmHg 46%
    03:00 +14°C° 0 mm 2 mps 675 mmHg 48%
    04:00 +14°C° 0 mm 2 mps 675 mmHg 50%
    05:00 +14°C° 0 mm 2 mps 675 mmHg 50%
    06:00 +14°C° 0 mm 1 mps 675 mmHg 50%
    07:00 +14°C° 0 mm 1 mps 675 mmHg 50%
    08:00 +16°C° 0 mm 2 mps 676 mmHg 45%
    09:00 +18°C° 0 mm 2 mps 676 mmHg 41%
    10:00 +20°C° 0 mm 3 mps 677 mmHg 34%
    11:00 +21°C° 0 mm 4 mps 677 mmHg 31%
    12:00 +22°C° 0 mm 5 mps 676 mmHg 28%
    13:00 +23°C° 0 mm 5 mps 676 mmHg 24%
    14:00 +23°C° 0 mm 5 mps 676 mmHg 24%
    15:00 +22°C° 0 mm 5 mps 676 mmHg 24%
    16:00 +22°C° 0 mm 5 mps 675 mmHg 24%
    17:00 +20°C° 0 mm 4 mps 676 mmHg 26%
    18:00 +19°C° 0 mm 4 mps 676 mmHg 29%
    19:00 +17°C° 0 mm 3 mps 676 mmHg 31%
    20:00 +17°C° 0 mm 3 mps 676 mmHg 33%
    21:00 +16°C° 0 mm 2 mps 676 mmHg 35%
    22:00 +15°C° 0 mm 2 mps 676 mmHg 37%
    23:00 +14°C° 0 mm 2 mps 676 mmHg 39%

    Mañana, 19 Noviembre, Lunes

    Tiempo Temperatura Precipitaciones Viento Presión Humedad
    00:00 +13°C° 0 mm 1 mps 676 mmHg 41%
    01:00 +13°C° 0 mm 1 mps 675 mmHg 43%
    02:00 +12°C° 0 mm 1 mps 675 mmHg 45%
    03:00 +12°C° 0 mm 1 mps 675 mmHg 47%
    04:00 +11°C° 0 mm 1 mps 675 mmHg 49%
    05:00 +11°C° 0 mm 1 mps 676 mmHg 48%
    06:00 +12°C° 0 mm 1 mps 676 mmHg 48%
    07:00 +11°C° 0 mm 0 mps 677 mmHg 47%
    08:00 +14°C° 0 mm 1 mps 678 mmHg 41%
    09:00 +16°C° 0 mm 1 mps 678 mmHg 36%
    10:00 +19°C° 0 mm 1 mps 679 mmHg 31%
    11:00 +19°C° 0 mm 1 mps 679 mmHg 28%
    12:00 +20°C° 0 mm 1 mps 678 mmHg 26%
    13:00 +21°C° 0 mm 1 mps 678 mmHg 23%
    14:00 +21°C° 0 mm 1 mps 678 mmHg 23%
    15:00 +20°C° 0 mm 2 mps 678 mmHg 23%
    16:00 +20°C° 0 mm 2 mps 678 mmHg 23%
    17:00 +19°C° 0 mm 1 mps 678 mmHg 26%
    18:00 +16°C° 0 mm 1 mps 678 mmHg 29%
    19:00 +14°C° 0 mm 0 mps 678 mmHg 32%
    20:00 +13°C° 0 mm 0 mps 678 mmHg 33%
    21:00 +13°C° 0 mm 0 mps 678 mmHg 34%
    22:00 +12°C° 0 mm 0 mps 678 mmHg 35%
    23:00 +13°C° 0 mm 1 mps 678 mmHg 36%

    Pasado mañana, 20 Noviembre, Martes

    Tiempo Temperatura Precipitaciones Viento Presión Humedad
    00:00 +13°C° 0 mm 1 mps 678 mmHg 36%
    01:00 +12°C° 0 mm 1 mps 678 mmHg 37%
    02:00 +12°C° 0 mm 1 mps 678 mmHg 37%
    03:00 +12°C° 0 mm 1 mps 678 mmHg 37%
    04:00 +12°C° 0 mm 1 mps 677 mmHg 37%
    05:00 +12°C° 0 mm 1 mps 678 mmHg 36%
    06:00 +13°C° 0 mm 1 mps 678 mmHg 35%
    07:00 +13°C° 0 mm 1 mps 679 mmHg 34%
    08:00 +15°C° 0 mm 1 mps 679 mmHg 30%
    09:00 +18°C° 0 mm 1 mps 680 mmHg 26%
    10:00 +20°C° 0 mm 1 mps 680 mmHg 22%
    11:00 +21°C° 0 mm 1 mps 680 mmHg 21%
    12:00 +22°C° 0 mm 1 mps 679 mmHg 21%
    13:00 +23°C° 0 mm 1 mps 679 mmHg 20%
    14:00 +22°C° 0 mm 1 mps 678 mmHg 21%
    15:00 +22°C° 0 mm 1 mps 678 mmHg 21%
    16:00 +22°C° 0 mm 1 mps 678 mmHg 22%
    17:00 +21°C° 0 mm 1 mps 678 mmHg 24%
    18:00 +20°C° 0 mm 1 mps 678 mmHg 25%
    19:00 +19°C° 0 mm 1 mps 678 mmHg 27%
    20:00 +18°C° 0 mm 1 mps 678 mmHg 28%
    21:00 +18°C° 0 mm 1 mps 678 mmHg 28%
    22:00 +16°C° 0 mm 1 mps 678 mmHg 29%
    23:00 +16°C° 0 mm 2 mps 678 mmHg 30%

    21 Noviembre, Miércoles

    Tiempo Temperatura Precipitaciones Viento Presión Humedad
    00:00 +16°C° 0 mm 2 mps 677 mmHg 30%
    01:00 +15°C° 0 mm 2 mps 677 mmHg 31%
    02:00 +15°C° 0 mm 2 mps 677 mmHg 31%
    03:00 +15°C° 0 mm 2 mps 677 mmHg 31%
    04:00 +15°C° 0 mm 2 mps 676 mmHg 32%
    05:00 +15°C° 0 mm 2 mps 677 mmHg 32%
    06:00 +16°C° 0 mm 2 mps 677 mmHg 32%
    07:00 +16°C° 0 mm 2 mps 677 mmHg 33%
    08:00 +16°C° 0.3 mm 2 mps 677 mmHg 35%
    09:00 +17°C° 0.3 mm 3 mps 677 mmHg 37%
    10:00 +17°C° 0.3 mm 4 mps 677 mmHg 39%
    11:00 +19°C° 0.1 mm 4 mps 677 mmHg 36%
    12:00 +20°C° 0.1 mm 3 mps 677 mmHg 34%
    13:00 +22°C° 0.1 mm 3 mps 676 mmHg 31%
    14:00 +21°C° 0.1 mm 3 mps 676 mmHg 32%
    15:00 +21°C° 0.1 mm 3 mps 675 mmHg 34%
    16:00 +20°C° 0.1 mm 4 mps 675 mmHg 35%
    17:00 +19°C° 0.1 mm 3 mps 675 mmHg 39%
    18:00 +19°C° 0.1 mm 2 mps 675 mmHg 43%
    19:00 +19°C° 0.1 mm 1 mps 676 mmHg 46%
    20:00 +17°C° 0.8 mm 2 mps 676 mmHg 53%
    21:00 +16°C° 0.8 mm 2 mps 676 mmHg 60%
    22:00 +16°C° 0.8 mm 2 mps 676 mmHg 67%
    23:00 +14°C° 0.7 mm 3 mps 676 mmHg 69%

    22 Noviembre, Jueves

    Tiempo Temperatura Precipitaciones Viento Presión Humedad
    00:00 +14°C° 0.7 mm 4 mps 676 mmHg 70%
    01:00 +14°C° 0.7 mm 4 mps 676 mmHg 72%
    02:00 +14°C° 0.4 mm 4 mps 676 mmHg 74%
    03:00 +13°C° 0.4 mm 3 mps 676 mmHg 76%
    04:00 +13°C° 0.4 mm 3 mps 676 mmHg 78%
    05:00 +14°C° 0.5 mm 2 mps 676 mmHg 79%
    06:00 +14°C° 0.5 mm 2 mps 676 mmHg 79%
    07:00 +14°C° 0.5 mm 2 mps 677 mmHg 80%
    08:00 +15°C° 0.1 mm 2 mps 677 mmHg 73%
    09:00 +16°C° 0.1 mm 2 mps 678 mmHg 66%
    10:00 +18°C° 0.1 mm 2 mps 678 mmHg 59%
    11:00 +18°C° 0 mm 2 mps 678 mmHg 54%
    12:00 +19°C° 0 mm 2 mps 678 mmHg 49%
    13:00 +20°C° 0 mm 2 mps 677 mmHg 43%
    14:00 +20°C° 0 mm 2 mps 677 mmHg 42%
    15:00 +20°C° 0 mm 2 mps 677 mmHg 40%
    16:00 +20°C° 0 mm 2 mps 677 mmHg 39%
    17:00 +20°C° 0 mm 1 mps 678 mmHg 41%
    18:00 +20°C° 0 mm 1 mps 678 mmHg 44%
    19:00 +19°C° 0 mm 1 mps 679 mmHg 47%
    20:00 +18°C° 0 mm 1 mps 679 mmHg 48%
    21:00 +18°C° 0 mm 1 mps 679 mmHg 50%
    22:00 +16°C° 0 mm 1 mps 679 mmHg 51%
    23:00 +16°C° 0 mm 1 mps 679 mmHg 52%

    23 Noviembre, Viernes

    Tiempo Temperatura Precipitaciones Viento Presión Humedad
    00:00 +16°C° 0 mm 1 mps 679 mmHg 52%
    01:00 +16°C° 0 mm 2 mps 679 mmHg 53%
    02:00 +15°C° 0 mm 2 mps 678 mmHg 53%
    03:00 +15°C° 0 mm 2 mps 678 mmHg 53%
    04:00 +15°C° 0 mm 2 mps 678 mmHg 53%
    05:00 +15°C° 0 mm 2 mps 679 mmHg 53%
    06:00 +15°C° 0 mm 2 mps 679 mmHg 52%
    07:00 +15°C° 0 mm 2 mps 680 mmHg 51%
    08:00 +17°C° 0 mm 2 mps 680 mmHg 46%
    09:00 +18°C° 0 mm 3 mps 681 mmHg 40%
    10:00 +20°C° 0 mm 3 mps 681 mmHg 34%
    11:00 +21°C° 0 mm 3 mps 680 mmHg 32%
    12:00 +23°C° 0 mm 2 mps 680 mmHg 29%
    13:00 +23°C° 0 mm 2 mps 679 mmHg 27%
    14:00 +23°C° 0 mm 2 mps 679 mmHg 27%
    15:00 +23°C° 0 mm 2 mps 679 mmHg 28%
    16:00 +23°C° 0 mm 2 mps 679 mmHg 28%
    17:00 +21°C° 0 mm 2 mps 679 mmHg 29%
    18:00 +20°C° 0 mm 2 mps 679 mmHg 31%
    19:00 +19°C° 0 mm 3 mps 680 mmHg 32%
    20:00 +19°C° 0 mm 3 mps 680 mmHg 33%
    21:00 +19°C° 0 mm 3 mps 680 mmHg 34%
    22:00 +18°C° 0 mm 3 mps 680 mmHg 34%
    23:00 +18°C° 0 mm 2 mps 679 mmHg 35%
    Mostrar más